COSMOS 1086

Satellite information

Favourite Embed

Satellite Type and Status

PAYLOADIN ORBIT

Key statistics

Satellite COSMOS 1086 at a glance.

Uptime

17036

Days in orbit

Revolutions

≈ 12.5

Per day

Orbit

LEO

Low Earth Orbit

Inclination

74.0

Latest

Satellite identification and parameters

Extended collection of information and parameters for COSMOS 1086.

Object identification

Identified? True

Debris? False

Object name: COSMOS 1086

International designator: 1979-024F

Object number (NORAD): 11301

Object ID (CCSDS): 11301

Country: COMMONWEALTH OF INDEPENDENT STATES (CIS)

Current information (Y/N): Y

RCS size: MEDIUM

Orbital parameters

Period: 115.396 minutes

Inclination: 74.0369 deg

SMA: 7851.515 km

Apoapsis: 1482.154 km

Periapsis: 1464.606 km

RAAN: 7.034 deg

Eccentricy: 0.0011175

Argument of periapsis: 328.0027 deg

Mean anomaly: 106.0865 deg

Mean motion: 12.47879345 rev/day

Mean motion (dot): -0.00000001 rev/day2

B* drag term: 0.00010192 1/REarth

Two-line elements (TLE)

Creation date: Nov. 3, 2025, 11:16 p.m.

Reference frame: TEME

Reference center: EARTH

Epoch: Nov. 3, 2025, 3:03 p.m. UTC

TLE line 0: 0 COSMOS 1086

TLE line 1: 1 11301U 79024F 25307.62776806 -.00000001 00000-0 10192-3 0 9995

TLE line 2: 2 11301 74.0369 7.0340 0011175 328.0027 106.0865 12.47879345124517

Live tracking on map

Real-time ground track for satellite COSMOS 1086.

In-orbit conjunctions

A list of the most updated potential collisions computed for object COSMOS 1086.

Target Orbit TCA Probability of collision Miss distance Type
DELTA 1 DEB SSO 2025-10-04 01:34:36 0.0001316463 239.0 (m) DEBRIS

Associated space launch

Military communications satellites

COSMOS 1086 was lifted into orbit during the mission ‘Kosmos-3M | Strela-1M 169-176’, on board a Kosmos-3M space rocket.

The launch took place on March 15, 1979, 2:58 a.m. from 132/2.

For more information about the launch, click the button.

Launch to space Kosmos-3M | Strela-1M 169-176
Kosmos-3M | Strela-1M 169-176

Agency: N/A

Status: Launch Successful

Launch date: March 15, 1979, 2:58 a.m. UTC

Rocket: Kosmos-3M

Launch pad: 132/2

Location: Plesetsk Cosmodrome, Russian Federation

...

Latest news about this satellite

There are no fresh news available about this satellite. Check back as we update our databases every day.


Newsletter sign-up

Weekly statistics, charts and insights to help you stay on top of the space industry.